This demonstration page uses our WeatherBlox Daily Observations layout. Learn more.

Left ArrowRight Arrow

39.08367, -84.50855

Hourly Observations for September 15, 2017

Temp ( °F °C ) Dew Point ( °F °C ) Humidity (%) Winds ( mph kmh ) Pressure ( in mb ) Visibility ( mi km ) Precip ( " mm )
12:53 am 00:53 Cloudy 64 17.8 64 17.8 100 100 N N/A 30.01 1016 10 16 N/A
1:53 am 01:53 Cloudy 63 17.2 63 17.2 100 100 N N/A 30.01 1016 10 16 N/A
2:16 am 02:16 Mostly Clear with Mist and Fog 63 17.2 63 17.2 100 100 N N/A 30.00 1016 2 2 N/A
2:19 am 02:19 Mostly Cloudy with Mist and Fog 63 17.2 63 17.2 100 100 N N/A 30.00 1016 1 1 N/A
2:28 am 02:28 Clear with Fog 62 16.7 62 16.7 100 100 N N/A 30.00 1016 0 0 N/A
2:32 am 02:32 Mostly Cloudy with Fog 62 16.7 62 16.7 100 100 N N/A 30.00 1016 1 1 N/A
2:39 am 02:39 Mostly Cloudy with Fog 62 16.7 62 16.7 100 100 N N/A 30.00 1016 1 1 N/A
2:48 am 02:48 Mostly Cloudy with Fog 63 17 63 17 100 100 SW 3 6 30.00 1016 0 0 N/A
2:53 am 02:53 Mostly Cloudy with Fog 62 16.7 62 16.7 100 100 SW 3 6 30.02 1017 1 1 N/A
3:03 am 03:03 Mostly Cloudy with Fog 60 15.6 60 15.6 100 100 N N/A 30.00 1016 0 0 N/A
3:30 am 03:30 Mostly Cloudy with Fog 60 15.6 60 15.6 100 100 N N/A 30.00 1016 1 1 N/A
3:53 am 03:53 Mostly Cloudy with Fog 59 15 59 15 100 100 N N/A 30.03 1017 0 0 N/A
4:41 am 04:41 Mostly Cloudy with Fog 58 14.4 58 14.4 100 100 N N/A 30.06 1018 0 0 N/A
4:53 am 04:53 Cloudy with Fog 58 14.4 58 14.4 100 100 N N/A 30.04 1017 0 0 N/A
5:07 am 05:07 Mostly Cloudy with Fog 57 13.9 57 13.9 100 100 N N/A 30.06 1018 1 1 N/A
5:15 am 05:15 Mostly Cloudy with Fog 58 14.4 58 14.4 100 100 N N/A 30.06 1018 1 1 N/A
5:22 am 05:22 Mostly Cloudy with Fog 57 13.9 57 13.9 100 100 N N/A 30.06 1018 0 0 N/A
5:53 am 05:53 Mostly Cloudy with Fog 58 14.4 58 14.4 100 100 N N/A 30.05 1018 0 0 N/A
6:53 am 06:53 Mostly Cloudy with Fog 59 15 59 15 100 100 N N/A 30.07 1018 0 0 N/A
7:53 am 07:53 Mostly Cloudy with Fog 59 15 59 15 100 100 N N/A 30.10 1019 0 0 N/A
8:53 am 08:53 Mostly Cloudy with Fog 61 16.1 61 16.1 100 100 N N/A 30.11 1020 5 8 N/A
9:42 am 09:42 Cloudy with Mist and Fog 62 16.7 62 16.7 100 100 N N/A 30.09 1019 1 2 N/A
9:53 am 09:53 Cloudy with Mist and Fog 63 17.2 63 17.2 100 100 ENE 3 6 30.13 1020 1 1 N/A
10:05 am 10:05 Cloudy with Mist and Fog 63 17.2 63 17.2 100 100 NNE 3 6 30.09 1019 2 3 N/A
10:12 am 10:12 Partly Cloudy with Mist and Fog 64 17.8 64 17.8 100 100 NNE 5 7 30.09 1019 5 8 N/A
10:53 am 10:53 Partly Cloudy 71 21.7 66 18.9 84 84 VRB 3 6 30.12 1020 10 16 N/A
11:53 am 11:53 Partly Cloudy 75 23.9 65 18.3 71 71 N N/A 30.11 1020 9 14 N/A
12:53 pm 12:53 Sunny 77 25 62 16.7 60 60 N N/A 30.10 1019 10 16 N/A
1:53 pm 13:53 Mostly Cloudy 78 25.6 63 17.2 60 60 S 5 7 30.09 1019 10 16 N/A
2:53 pm 14:53 Sunny 79 26.1 61 16.1 54 54 N N/A 30.07 1018 10 16 N/A
3:53 pm 15:53 Mostly Cloudy 80 26.7 61 16.1 52 52 SSW 7 11 30.06 1018 10 16 N/A
4:53 pm 16:53 Mostly Sunny 80 26.7 60 15.6 51 51 N N/A 30.06 1018 10 16 N/A
5:53 pm 17:53 Mostly Cloudy 77 25 66 18.9 69 69 ESE 3 6 30.07 1018 10 16 N/A
6:53 pm 18:53 Mostly Sunny 76 24.4 64 17.8 67 67 E 5 7 30.07 1018 10 16 N/A
7:53 pm 19:53 Clear 70 21.1 67 19.4 90 90 N N/A 30.08 1019 10 16 N/A
8:53 pm 20:53 Clear 64 17.8 64 17.8 100 100 N N/A 30.09 1019 9 14 N/A
9:53 pm 21:53 Clear 64 17.8 64 17.8 100 100 N N/A 30.11 1020 10 16 N/A
10:53 pm 22:53 Clear with Mist and Fog 63 17.2 63 17.2 100 100 N N/A 30.11 1020 5 8 N/A
11:40 pm 23:40 Clear with Mist and Fog 62 16.7 62 16.7 100 100 N N/A 30.09 1019 2 3 N/A
11:50 pm 23:50 Clear with Mist and Fog 61 16 61 16 100 100 N N/A 30.09 1019 4 6 N/A
11:53 pm 23:53 Clear with Mist and Fog 61 16.1 61 16.1 100 100 N N/A 30.12 1020 4 6 N/A

Powered by AerisWeather